DateTimeUTC,F1_A11,F1_S11,BsB_S11,BsG_S11,BsR_S11,BbsB_S11,BbsG_S11,BbsR_S11,BaB_A11,BaG_A11,BaR_A11,Tu_S11,T_S11,Uu_S11,U_S11,P_S11,T1_A11
2021-04-21T06:00:00Z,00000200,21000000,,,,,,,-000.44,-000.05,-000.17,16.4,24.2,,00.0,0657.4,31.0
2021-04-21T06:01:00Z,00000200,21000000,,,,,,,0000.30,-000.25,0000.19,16.4,24.2,,00.0,0657.4,31.0
2021-04-21T06:02:00Z,00000200,21000000,,,,,,,-000.30,-000.13,-000.28,16.3,24.2,,00.0,0657.4,31.0
2021-04-21T06:03:00Z,00000200,61000000,,,,,,,0000.36,0000.38,0000.07,16.3,24.2,,00.0,0657.4,31.0
2021-04-21T06:04:00Z,00000200,41000000,-000.14,0000.53,-000.05,0000.34,0000.35,-000.11,0000.19,0000.05,0000.17,16.4,23.9,,00.0,0658.3,31.0
2021-04-21T06:05:00Z,00000200,01000000,0000.29,0000.23,0000.24,-000.14,0000.44,0000.09,0000.28,0000.21,0000.26,16.3,23.8,,00.0,0658.4,31.0
2021-04-21T06:06:00Z,00000200,01000000,0000.36,0000.46,0000.29,0000.32,0000.31,0000.16,0000.34,0000.25,0000.37,16.3,23.8,,00.0,0658.4,31.0
2021-04-21T06:07:00Z,00000200,01000000,0000.36,0000.34,0000.11,0000.43,0000.17,0000.28,-000.01,0000.72,0000.36,16.3,23.8,,00.0,0658.5,31.0
2021-04-21T06:08:00Z,00000200,01000000,0000.46,0000.39,0000.33,0000.36,0000.05,0000.08,0000.23,0000.10,-000.18,16.4,23.8,,00.0,0658.4,31.0
2021-04-21T06:09:00Z,00000200,01000000,0000.11,0000.04,-000.01,0000.49,0000.41,0000.10,0000.52,0000.25,0000.40,16.4,23.8,,00.0,0658.4,31.0
2021-04-21T06:10:00Z,00000200,01000000,0000.06,0000.33,0000.12,0000.30,0000.25,0000.18,0000.25,0000.19,0000.04,16.5,23.8,,00.0,0658.4,31.0
2021-04-21T06:11:00Z,00000200,01000000,0000.56,0000.40,0000.01,0000.37,-000.05,0000.08,0000.43,0000.62,0000.47,16.5,23.8,,00.0,0658.4,31.0
2021-04-21T06:12:00Z,00000200,01000000,0000.14,0000.72,0000.01,-000.02,0000.19,0000.14,0000.47,0000.25,0000.32,16.6,23.9,,00.0,0658.4,31.0
2021-04-21T06:13:00Z,00000200,01000000,-000.41,0000.32,-000.06,0000.46,0000.27,-000.14,0000.65,0000.62,0000.52,16.7,23.9,,00.0,0658.4,31.0
2021-04-21T06:14:00Z,00000200,01000000,0000.21,0000.24,0000.30,0000.23,0000.07,0000.21,0000.07,0000.13,0000.10,16.7,24.0,,00.0,0658.4,31.0
2021-04-21T06:15:00Z,00000200,01000000,0000.40,0000.73,0000.48,0000.33,0000.05,0000.06,0000.45,0000.34,0000.68,16.8,24.0,,00.0,0658.4,31.1
2021-04-21T06:16:00Z,00000200,01000000,0000.11,0000.30,0000.10,0000.36,0000.07,0000.01,0000.04,-000.02,-000.28,16.8,24.0,,00.0,0658.4,31.1
2021-04-21T06:17:00Z,00000200,01000000,0000.26,0000.32,0000.12,0000.27,0000.09,0000.15,0000.10,0000.29,0000.04,16.9,24.1,,00.0,0658.4,31.1
2021-04-21T06:18:00Z,00000200,01000000,0000.42,0000.40,0000.44,0000.39,0000.06,0000.17,0000.46,0000.36,0000.47,16.9,24.1,,00.0,0658.4,31.1
2021-04-21T06:19:00Z,00000200,01000000,0000.85,0000.37,0000.12,0000.10,0000.25,0000.09,-000.05,-000.36,-000.28,17.0,24.1,,00.0,0658.4,31.1
2021-04-21T06:20:00Z,00000200,01000000,-000.04,0000.54,0000.15,0000.48,0000.19,0000.26,0000.11,0000.40,0000.28,16.9,24.1,,00.0,0658.4,31.0
2021-04-21T06:21:00Z,00000200,01000000,0000.39,0000.27,-000.12,0000.48,0000.15,0000.03,0000.52,0000.53,0000.04,16.9,24.0,,00.0,0658.4,31.0
2021-04-21T06:22:00Z,00000200,01000000,0000.16,0000.66,0000.16,0000.29,0000.07,0000.35,0000.39,0000.06,0000.34,16.8,24.0,,00.0,0658.5,31.0
2021-04-21T06:23:00Z,00000200,01000000,0000.39,0000.32,0000.14,0000.32,0000.26,-000.14,0000.09,0000.22,0000.16,16.7,24.0,,00.0,0658.5,31.0
2021-04-21T06:24:00Z,00000200,01000000,0000.29,0000.61,0000.20,0000.53,0000.35,0000.03,0000.25,0000.42,0000.25,16.7,24.0,,00.0,0658.5,31.0
2021-04-21T06:25:00Z,00000200,01000000,0000.41,0000.42,0000.21,0000.43,0000.16,-000.20,0000.31,0000.04,0000.01,16.6,23.9,,00.0,0658.5,31.0
2021-04-21T06:26:00Z,00000200,01000000,0000.22,0000.49,-000.08,-000.11,0000.24,-000.03,0000.44,0000.27,0000.14,16.6,23.9,,00.0,0658.5,31.0
2021-04-21T06:27:00Z,00000200,01000000,0000.13,0000.40,0000.11,0000.65,0000.13,-000.01,-000.21,0000.17,0000.20,16.5,23.9,,00.0,0658.6,31.0
2021-04-21T06:28:00Z,00000200,01000000,-000.10,0000.49,0000.38,0000.51,0000.27,-000.01,0000.38,0000.22,0000.47,16.5,23.8,,00.0,0658.6,30.9
2021-04-21T06:29:00Z,00000200,01000000,0000.17,0000.66,0000.25,0000.37,0000.24,-000.03,0000.18,0000.43,-000.12,16.4,23.8,,00.0,0658.6,30.9
2021-04-21T06:30:00Z,00000200,01000000,0000.13,0000.56,0000.32,0000.41,0000.26,-000.15,0000.29,0000.02,0000.15,16.4,23.8,,00.0,0658.6,30.9
2021-04-21T06:31:00Z,00000200,01000000,0000.74,0000.41,0000.12,0000.41,0000.18,0000.26,0000.34,-000.09,0000.02,16.3,23.8,,00.0,0658.6,30.9
2021-04-21T06:32:00Z,00000200,01000000,0000.32,0000.39,0000.12,-000.05,0000.23,0000.26,0000.15,0000.34,0000.06,16.3,23.7,,00.0,0658.6,30.9
2021-04-21T06:33:00Z,00000200,01000000,-000.06,0000.46,0000.23,0000.69,0000.12,0000.11,0000.32,-000.06,0000.12,16.2,23.7,,00.0,0658.6,30.9
2021-04-21T06:34:00Z,00000200,01000000,0000.39,0000.40,0000.13,0000.24,0000.07,0000.10,0000.31,0000.35,0000.25,16.2,23.7,,00.0,0658.6,30.9
2021-04-21T06:35:00Z,00000200,01000000,0001.02,0000.40,0000.34,0000.66,0000.33,0000.06,0000.08,0000.09,0000.20,16.1,23.6,,00.0,0658.6,30.9
2021-04-21T06:36:00Z,00000200,01000000,0000.67,0000.23,-000.26,0000.81,0000.10,-000.14,0000.41,0000.66,0000.31,16.1,23.6,,00.0,0658.6,30.9
2021-04-21T06:37:00Z,00000200,01000000,0000.38,0000.47,0000.22,0000.30,0000.18,0000.05,0000.38,-000.07,0000.19,16.1,23.6,,00.0,0658.6,30.9
2021-04-21T06:38:00Z,00000200,01000000,0000.45,0000.58,0000.46,-000.01,0000.22,-000.04,0000.25,0000.49,0000.45,16.2,23.6,,00.0,0658.6,31.0
2021-04-21T06:39:00Z,00000200,01000000,0000.87,0000.67,0000.69,0000.80,0000.17,0000.13,0000.49,0000.29,0000.14,16.2,23.6,,00.0,0658.6,31.0
2021-04-21T06:40:00Z,00000200,01000000,0000.10,0000.90,0000.36,0000.18,0000.07,0000.20,0000.31,0000.97,0000.38,16.3,23.7,,00.0,0658.6,31.0
2021-04-21T06:41:00Z,00000200,01000000,0000.58,0000.30,0000.21,0000.35,0000.40,0000.19,0000.66,0000.37,0000.35,16.4,23.7,,00.0,0658.6,31.0
2021-04-21T06:42:00Z,00000200,01000000,0000.19,0000.34,0000.17,0000.12,0000.27,0000.27,0000.15,0000.13,0000.44,16.4,23.7,,00.0,0658.5,31.0
2021-04-21T06:43:00Z,00000200,01000000,0000.57,0000.64,0000.22,0000.43,0000.10,0000.29,0000.81,0000.78,0000.24,16.5,23.8,,00.0,0658.6,31.0
2021-04-21T06:44:00Z,00000200,01000000,0000.71,0000.42,0000.72,0000.19,0000.32,0000.19,0000.50,0000.09,0000.22,16.6,23.8,,00.0,0658.6,31.0
2021-04-21T06:45:00Z,00000200,01000000,0001.29,0000.69,0000.15,0000.50,0000.18,0000.02,0000.05,0000.22,0000.16,16.6,23.8,,00.0,0658.6,31.0
2021-04-21T06:46:00Z,00000200,01000000,0000.31,0000.66,0000.33,0000.44,0000.22,0000.21,0000.44,0000.27,0000.33,16.6,23.8,,00.0,0658.6,31.0
2021-04-21T06:47:00Z,00000200,01000000,0000.53,0000.47,0000.31,0000.33,0000.10,-000.02,0000.31,0000.28,0000.48,16.6,23.8,,00.0,0658.6,31.0
2021-04-21T06:48:00Z,00000200,01000000,0000.07,0000.40,0000.23,0000.70,0000.20,0000.33,-000.07,0000.02,-000.19,16.6,23.8,,00.0,0658.6,31.0
2021-04-21T06:49:00Z,00000200,01000000,0000.34,0000.84,0000.05,0000.30,-000.01,-000.12,0000.08,0000.23,-000.09,16.5,23.8,,00.0,0658.6,31.0
2021-04-21T06:50:00Z,00000200,01000000,-000.16,0000.84,0000.34,0000.49,0000.32,-000.10,0000.27,0000.25,0000.26,16.5,23.8,,00.0,0658.6,31.0
2021-04-21T06:51:00Z,00000200,01000000,0000.45,0000.64,0000.24,0000.40,0000.20,0000.11,0000.60,0000.36,0000.28,16.5,23.7,,00.0,0658.6,31.0
2021-04-21T06:52:00Z,00000200,01000000,0000.87,0000.66,0000.62,0000.28,0000.20,0000.32,0000.64,0000.63,0000.34,16.5,23.7,,00.0,0658.6,31.0
2021-04-21T06:53:00Z,00000200,01000000,-000.16,0000.43,0000.25,-000.30,0000.04,-000.16,0000.25,0000.44,0000.45,16.5,23.7,,00.0,0658.6,31.0
2021-04-21T06:54:00Z,00000200,01000000,0000.10,0000.45,0000.11,0000.30,0000.38,0000.03,0000.52,0000.18,0000.36,16.5,23.8,,00.0,0658.6,31.0
2021-04-21T06:55:00Z,00000200,01000000,0000.04,0000.54,0000.41,0000.41,0000.23,0000.29,0000.22,0000.49,0000.42,16.6,23.8,,00.0,0658.6,31.0
2021-04-21T06:56:00Z,00000200,01000000,0000.45,0000.41,0000.30,0000.05,0000.23,-000.02,0000.63,0000.47,0000.10,16.7,23.8,,00.0,0658.6,31.0
2021-04-21T06:57:00Z,00000200,41000000,,,,,,,-000.33,-000.37,-000.15,16.7,23.9,,00.0,0658.6,31.0
2021-04-21T06:58:00Z,00000200,61000000,,,,,,,-000.06,-000.02,0000.02,16.5,24.1,,00.0,0657.6,31.0
2021-04-21T06:59:00Z,00000200,21000000,,,,,,,0000.16,-000.12,-000.18,16.5,24.2,,00.0,0657.6,31.0
